| time (UTC) | temp F | wind direction | speed MPH | gust MPH | rain 1hr in | rain 24hr in | rain mn in | humidity % | barometer mb |
| 20260506142620 | 39 | 54 | 5.0 | 12.0 | 0.00 | 0.19 | 0.08 | 80 | 1019.4 |
| 20260506141631 | 38 | 5 | 5.0 | 8.0 | 0.00 | 0.19 | 0.08 | 81 | 1019.4 |
| 20260506140622 | 38 | 12 | 4.0 | 8.0 | 0.00 | 0.19 | 0.08 | 81 | 1019.4 |
| 20260506135624 | 38 | 317 | 4.0 | 6.0 | 0.00 | 0.19 | 0.08 | 80 | 1019.1 |
| 20260506134632 | 38 | 20 | 8.0 | 12.0 | 0.00 | 0.19 | 0.08 | 81 | 1018.8 |
| 20260506133619 | 37 | 9 | 5.0 | 10.0 | 0.00 | 0.19 | 0.08 | 82 | 1018.7 |
| 20260506132627 | 36 | 91 | 7.0 | 11.0 | 0.00 | 0.19 | 0.08 | 84 | 1018.6 |
| 20260506131640 | 36 | 96 | 5.0 | 9.0 | 0.00 | 0.19 | 0.08 | 85 | 1018.4 |
| 20260506130627 | 36 | 105 | 4.0 | 10.0 | 0.00 | 0.19 | 0.08 | 86 | 1018.2 |
| 20260506125627 | 35 | 128 | 5.0 | 9.0 | 0.00 | 0.19 | 0.08 | 86 | 1018.0 |
| 20260506124637 | 35 | 163 | 6.0 | 10.0 | 0.00 | 0.19 | 0.08 | 86 | 1017.8 |
| 20260506123631 | 35 | 122 | 8.0 | 10.0 | 0.00 | 0.19 | 0.08 | 87 | 1017.4 |
| 20260506122621 | 36 | 134 | 6.0 | 9.0 | 0.00 | 0.19 | 0.08 | 87 | 1017.5 |
| 20260506121632 | 36 | 103 | 7.0 | 9.0 | 0.00 | 0.19 | 0.08 | 88 | 1017.5 |
| 20260506120622 | 36 | 124 | 7.0 | 11.0 | 0.00 | 0.19 | 0.08 | 88 | 1017.3 |
| 20260506115627 | 36 | 115 | 6.0 | 10.0 | 0.00 | 0.19 | 0.08 | 87 | 1017.3 |
| 20260506114636 | 36 | 141 | 5.0 | 8.0 | 0.00 | 0.19 | 0.08 | 86 | 1017.2 |
| 20260506113624 | 36 | 90 | 2.0 | 6.0 | 0.00 | 0.19 | 0.08 | 87 | 1017.2 |
| 20260506112632 | 36 | 95 | 3.0 | 6.0 | 0.00 | 0.19 | 0.08 | 87 | 1017.2 |
| 20260506111623 | 36 | 105 | 2.0 | 4.0 | 0.00 | 0.19 | 0.08 | 87 | 1017.5 |
| 20260506110631 | 36 | 103 | 1.0 | 3.0 | 0.00 | 0.19 | 0.08 | 87 | 1017.4 |
| 20260506105630 | 37 | 109 | 2.0 | 6.0 | 0.00 | 0.19 | 0.08 | 87 | 1017.5 |
| 20260506104638 | 36 | 110 | 2.0 | 3.0 | 0.00 | 0.19 | 0.08 | 87 | 1017.5 |
| 20260506103644 | 36 | 152 | 2.0 | 8.0 | 0.01 | 0.19 | 0.08 | 87 | 1017.5 |
| 20260506102615 | 36 | 109 | 4.0 | 8.0 | 0.01 | 0.19 | 0.08 | 87 | 1017.4 |
| 20260506101621 | 36 | 158 | 7.0 | 9.0 | 0.02 | 0.19 | 0.08 | 86 | 1017.6 |
| 20260506100631 | 37 | 128 | 8.0 | 10.0 | 0.02 | 0.19 | 0.08 | 83 | 1017.7 |
| 20260506095632 | 38 | 119 | 3.0 | 6.0 | 0.02 | 0.19 | 0.08 | 79 | 1018.0 |
| 20260506094625 | 38 | 5 | 5.0 | 13.0 | 0.02 | 0.19 | 0.08 | 78 | 1018.0 |
| 20260506093635 | 38 | 27 | 9.0 | 18.0 | 0.01 | 0.18 | 0.07 | 77 | 1017.7 |
| 20260506092644 | 39 | 5 | 16.0 | 24.0 | 0.01 | 0.18 | 0.07 | 73 | 1017.4 |
| 20260506091613 | 39 | 15 | 16.0 | 25.0 | 0.00 | 0.17 | 0.06 | 71 | 1017.2 |
| 20260506090647 | 41 | 18 | 17.0 | 24.0 | 0.00 | 0.17 | 0.06 | 67 | 1017.0 |
| 20260506085628 | 41 | 26 | 13.0 | 23.0 | 0.00 | 0.17 | 0.06 | 67 | 1016.9 |
| 20260506084640 | 41 | 44 | 14.0 | 25.0 | 0.00 | 0.17 | 0.06 | 68 | 1016.7 |
| 20260506083629 | 41 | 5 | 14.0 | 21.0 | 0.00 | 0.17 | 0.06 | 72 | 1016.3 |
| 20260506082623 | 41 | 76 | 10.0 | 22.0 | 0.00 | 0.17 | 0.06 | 72 | 1016.2 |
| 20260506081632 | 41 | 117 | 13.0 | 24.0 | 0.01 | 0.17 | 0.06 | 72 | 1015.8 |
| 20260506080620 | 42 | 89 | 11.0 | 26.0 | 0.05 | 0.17 | 0.06 | 71 | 1015.3 |
| 20260506072628 | 43 | 46 | 11.0 | 27.0 | 0.06 | 0.17 | 0.06 | 78 | 1013.4 |
| 20260506071614 | 44 | 5 | 13.0 | 28.0 | 0.05 | 0.16 | 0.05 | 77 | 1013.3 |
| 20260506070641 | 46 | 70 | 16.0 | 32.0 | 0.01 | 0.12 | 0.01 | 72 | 1012.7 |
| 20260506061618 | 49 | 93 | 9.0 | 14.0 | 0.00 | 0.11 | 0.00 | 75 | 1011.4 |
| 20260506060614 | 47 | 17 | 7.0 | 13.0 | 0.00 | 0.11 | 0.00 | 81 | 1011.4 |
| 20260506050631 | 48 | 107 | 8.0 | 11.0 | 0.00 | 0.11 | 0.11 | 79 | 1010.6 |
| 20260506044625 | 47 | 5 | 4.0 | 6.0 | 0.00 | 0.11 | 0.11 | 78 | 1010.7 |
| 20260506043632 | 47 | 198 | 2.0 | 3.0 | 0.00 | 0.11 | 0.11 | 78 | 1010.6 |
| 20260506042617 | 47 | 244 | 1.0 | 3.0 | 0.00 | 0.11 | 0.11 | 79 | 1010.5 |
| 20260506041631 | 48 | 248 | 3.0 | 4.0 | 0.00 | 0.11 | 0.11 | 80 | 1010.5 |
| 20260506040640 | 48 | 289 | 0.0 | 3.0 | 0.00 | 0.11 | 0.11 | 80 | 1010.4 |
| 20260506035620 | 47 | 289 | 1.0 | 2.0 | 0.00 | 0.11 | 0.11 | 82 | 1010.3 |
| 20260506034631 | 47 | 289 | 2.0 | 3.0 | 0.00 | 0.11 | 0.11 | 81 | 1010.2 |
| 20260506033625 | 47 | 240 | 2.0 | 4.0 | 0.00 | 0.11 | 0.11 | 76 | 1010.0 |
| 20260506032616 | 50 | 239 | 2.0 | 3.0 | 0.00 | 0.11 | 0.11 | 78 | 1009.7 |
| 20260506031626 | 49 | 240 | 1.0 | 3.0 | 0.00 | 0.11 | 0.11 | 78 | 1009.5 |
| 20260506030617 | 49 | 240 | 2.0 | 4.0 | 0.00 | 0.11 | 0.11 | 78 | 1009.5 |
| 20260506025621 | 49 | 269 | 3.0 | 4.0 | 0.00 | 0.11 | 0.11 | 76 | 1009.4 |
| 20260506024631 | 50 | 267 | 2.0 | 3.0 | 0.00 | 0.11 | 0.11 | 74 | 1009.4 |
| 20260506023622 | 51 | 267 | 3.0 | 6.0 | 0.00 | 0.11 | 0.11 | 72 | 1009.0 |
| 20260506022634 | 53 | 257 | 4.0 | 7.0 | 0.00 | 0.11 | 0.11 | 68 | 1008.9 |
| 20260506021646 | 55 | 210 | 0.0 | 3.0 | 0.00 | 0.11 | 0.11 | 64 | 1008.7 |
| 20260506020614 | 56 | 209 | 1.0 | 2.0 | 0.00 | 0.11 | 0.11 | 60 | 1008.7 |
| 20260506015630 | 58 | 209 | 2.0 | 3.0 | 0.00 | 0.11 | 0.11 | 60 | 1008.5 |
| 20260506014618 | 58 | 209 | 0.0 | 0.0 | 0.00 | 0.11 | 0.11 | 57 | 1008.5 |
| 20260506013627 | 58 | 209 | 1.0 | 2.0 | 0.00 | 0.11 | 0.11 | 56 | 1008.5 |
| 20260506012620 | 59 | 209 | 1.0 | 3.0 | 0.00 | 0.11 | 0.11 | 54 | 1008.5 |
| 20260506011629 | 59 | 181 | 1.0 | 3.0 | 0.00 | 0.11 | 0.11 | 55 | 1008.5 |
| 20260506010617 | 59 | 171 | 1.0 | 4.0 | 0.00 | 0.11 | 0.11 | 56 | 1008.5 |
| 20260506005618 | 59 | 265 | 1.0 | 4.0 | 0.00 | 0.11 | 0.11 | 57 | 1008.6 |
| 20260506004628 | 59 | 227 | 2.0 | 5.0 | 0.00 | 0.11 | 0.11 | 57 | 1008.6 |
| 20260506003618 | 59 | 232 | 4.0 | 5.0 | 0.00 | 0.11 | 0.11 | 56 | 1008.7 |
| 20260506002629 | 59 | 229 | 3.0 | 6.0 | 0.00 | 0.11 | 0.11 | 59 | 1008.7 |
| 20260506001623 | 58 | 175 | 4.0 | 7.0 | 0.00 | 0.11 | 0.11 | 58 | 1008.7 |
| 20260506000614 | 59 | 171 | 4.0 | 6.0 | 0.00 | 0.11 | 0.11 | 59 | 1008.8 |
| 20260505235616 | 58 | 128 | 1.0 | 6.0 | 0.00 | 0.11 | 0.11 | 59 | 1008.8 |
| 20260505234624 | 58 | 145 | 1.0 | 3.0 | 0.00 | 0.11 | 0.11 | 60 | 1008.9 |
| 20260505233617 | 58 | 125 | 1.0 | 6.0 | 0.00 | 0.11 | 0.11 | 61 | 1009.0 |
| 20260505232647 | 58 | 32 | 3.0 | 6.0 | 0.00 | 0.11 | 0.11 | 60 | 1009.1 |
| 20260505231632 | 57 | 168 | 1.0 | 5.0 | 0.00 | 0.11 | 0.11 | 62 | 1009.1 |
| 20260505230638 | 56 | 184 | 1.0 | 7.0 | 0.00 | 0.11 | 0.11 | 65 | 1009.3 |
| 20260505225616 | 56 | 198 | 2.0 | 9.0 | 0.00 | 0.11 | 0.11 | 65 | 1009.5 |
| 20260505224630 | 55 | 191 | 2.0 | 6.0 | 0.00 | 0.11 | 0.11 | 68 | 1009.6 |
| 20260505223618 | 54 | 173 | 5.0 | 8.0 | 0.00 | 0.11 | 0.11 | 67 | 1009.7 |
| 20260505222626 | 54 | 197 | 2.0 | 5.0 | 0.00 | 0.11 | 0.11 | 69 | 1009.8 |
| 20260505221613 | 53 | 180 | 2.0 | 7.0 | 0.00 | 0.11 | 0.11 | 73 | 1010.1 |
| 20260505220625 | 52 | 146 | 2.0 | 9.0 | 0.00 | 0.11 | 0.11 | 75 | 1010.2 |
| 20260505215645 | 52 | 163 | 5.0 | 9.0 | 0.00 | 0.11 | 0.11 | 75 | 1010.5 |
| 20260505214615 | 52 | 159 | 2.0 | 6.0 | 0.00 | 0.11 | 0.11 | 77 | 1010.6 |
| 20260505213645 | 51 | 46 | 2.0 | 5.0 | 0.01 | 0.11 | 0.11 | 79 | 1010.8 |
| 20260505212650 | 50 | 94 | 3.0 | 6.0 | 0.02 | 0.11 | 0.11 | 81 | 1011.0 |
| 20260505211622 | 49 | 141 | 3.0 | 7.0 | 0.03 | 0.11 | 0.11 | 81 | 1011.2 |
| 20260505210613 | 48 | 101 | 2.0 | 7.0 | 0.04 | 0.11 | 0.11 | 83 | 1011.2 |
| 20260505205613 | 48 | 102 | 4.0 | 7.0 | 0.04 | 0.11 | 0.11 | 86 | 1011.4 |
| 20260505204623 | 47 | 96 | 3.0 | 8.0 | 0.04 | 0.10 | 0.10 | 86 | 1011.6 |
| 20260505203637 | 47 | 98 | 5.0 | 10.0 | 0.04 | 0.10 | 0.10 | 85 | 1011.7 |
| 20260505202625 | 47 | 74 | 6.0 | 9.0 | 0.03 | 0.09 | 0.09 | 84 | 1012.0 |
| 20260505201636 | 47 | 89 | 5.0 | 9.0 | 0.02 | 0.08 | 0.08 | 83 | 1011.9 |
| 20260505200625 | 48 | 104 | 3.0 | 9.0 | 0.01 | 0.07 | 0.07 | 82 | 1011.9 |
| 20260505195630 | 48 | 119 | 6.0 | 9.0 | 0.00 | 0.06 | 0.06 | 80 | 1011.7 |
| 20260505194621 | 48 | 92 | 4.0 | 6.0 | 0.00 | 0.06 | 0.06 | 78 | 1011.7 |
| 20260505193631 | 48 | 29 | 6.0 | 8.0 | 0.00 | 0.06 | 0.06 | 78 | 1011.5 |
| 20260505192641 | 48 | 74 | 3.0 | 9.0 | 0.00 | 0.06 | 0.06 | 79 | 1011.5 |
| 20260505191652 | 47 | 101 | 3.0 | 11.0 | 0.01 | 0.06 | 0.06 | 79 | 1011.6 |
| 20260505190621 | 47 | 119 | 9.0 | 12.0 | 0.02 | 0.06 | 0.06 | 79 | 1011.5 |
| 20260505185620 | 46 | 90 | 8.0 | 13.0 | 0.03 | 0.06 | 0.06 | 81 | 1011.5 |
| 20260505184627 | 46 | 89 | 11.0 | 14.0 | 0.04 | 0.06 | 0.06 | 82 | 1011.6 |
| 20260505183614 | 45 | 100 | 10.0 | 14.0 | 0.05 | 0.06 | 0.06 | 83 | 1011.5 |
| 20260505182637 | 45 | 27 | 9.0 | 13.0 | 0.06 | 0.06 | 0.06 | 84 | 1011.4 |
| 20260505181643 | 45 | 62 | 7.0 | 14.0 | 0.05 | 0.05 | 0.05 | 83 | 1011.4 |
| 20260505180636 | 46 | 20 | 8.0 | 14.0 | 0.04 | 0.04 | 0.04 | 81 | 1011.4 |
| 20260505175615 | 47 | 57 | 9.0 | 17.0 | 0.03 | 0.03 | 0.03 | 78 | 1011.2 |
| 20260505174644 | 47 | 80 | 7.0 | 18.0 | 0.02 | 0.02 | 0.02 | 80 | 1011.1 |
| 20260505173630 | 48 | 114 | 10.0 | 15.0 | 0.01 | 0.01 | 0.01 | 82 | 1011.0 |
| 20260505172622 | 48 | 113 | 6.0 | 14.0 | 0.00 | 0.00 | 0.00 | 83 | 1010.8 |
| 20260505171629 | 48 | 102 | 8.0 | 15.0 | 0.00 | 0.00 | 0.00 | 82 | 1010.7 |
| 20260505170618 | 49 | 111 | 8.0 | 14.0 | 0.00 | 0.00 | 0.00 | 80 | 1010.5 |
| 20260505165620 | 49 | 92 | 7.0 | 14.0 | 0.00 | 0.00 | 0.00 | 78 | 1010.4 |
| 20260505164631 | 50 | 92 | 9.0 | 14.0 | 0.00 | 0.00 | 0.00 | 76 | 1010.2 |
| 20260505163620 | 50 | 107 | 9.0 | 13.0 | 0.00 | 0.00 | 0.00 | 75 | 1010.2 |
| 20260505162630 | 50 | 99 | 9.0 | 12.0 | 0.00 | 0.00 | 0.00 | 75 | 1010.1 |
| 20260505161622 | 49 | 107 | 7.0 | 13.0 | 0.00 | 0.00 | 0.00 | 75 | 1010.2 |
| 20260505160630 | 50 | 125 | 8.0 | 12.0 | 0.00 | 0.00 | 0.00 | 75 | 1010.0 |
| 20260505152637 | 50 | 122 | 10.0 | 14.0 | 0.00 | 0.00 | 0.00 | 75 | 1009.8 |
| 20260505151622 | 51 | 90 | 8.0 | 11.0 | 0.00 | 0.00 | 0.00 | 74 | 1009.8 |
| 20260505150632 | 51 | 97 | 4.0 | 8.0 | 0.00 | 0.00 | 0.00 | 72 | 1009.8 |